This is the latest recevied weather packets stored in our database for station/object K5YNC. If no packets are shown the sender has not sent any weather packets the latest 10 day(s).
| Time | Temp. | Humidity | Pressure | Rain* | Wind** | Luminosity | Snow |
|---|---|---|---|---|---|---|---|
| 1777681576 | 17.78° C | 71% | 1018.2 hPa | 0 mm | - | 29 W/m² | - |
| 1777681274 | 17.78° C | 70% | 1018.4 hPa | 0 mm | - | 36 W/m² | - |
| 1777680972 | 17.78° C | 71% | 1018 hPa | 0 mm | - | 43 W/m² | - |
| 1777680669 | 17.78° C | 73% | 1018.1 hPa | 0 mm | - | 42 W/m² | - |
| 1777680367 | 17.22° C | 66% | 1018 hPa | 0 mm | - | 38 W/m² | - |
| 1777680064 | 17.78° C | 75% | 1018 hPa | 0 mm | - | 23 W/m² | - |
| 1777679759 | 17.78° C | 71% | 1017.9 hPa | 0 mm | - | 15 W/m² | - |
| 1777679456 | 17.78° C | 73% | 1017.9 hPa | 0 mm | - | 10 W/m² | - |
| 1777679151 | 18.33° C | 71% | 1017.9 hPa | 0 mm | - | 8 W/m² | - |
| 1777678849 | 18.89° C | 71% | 1017.8 hPa | 0 mm | - | 10 W/m² | - |
| 1777678547 | 18.89° C | 66% | 1017.7 hPa | 0 mm | - | 27 W/m² | - |
| 1777678244 | 18.89° C | 65% | 1017.5 hPa | 0 mm | - | 55 W/m² | - |
| 1777677940 | 18.89° C | 67% | 1017.7 hPa | 0 mm | - | 67 W/m² | - |
| 1777677637 | 18.89° C | 64% | 1017.7 hPa | 0 mm | - | 88 W/m² | - |
| 1777677335 | 18.89° C | 62% | 1017.3 hPa | 0 mm | - | 101 W/m² | - |
| 1777677033 | 19.44° C | 62% | 1017.5 hPa | 0 mm | - | 107 W/m² | - |
| 1777676732 | 19.44° C | 61% | 1017.5 hPa | 0 mm | - | 97 W/m² | - |
| 1777676429 | 19.44° C | 60% | 1017.4 hPa | 0 mm | - | 93 W/m² | - |
| 1777676127 | 19.44° C | 57% | 1017.5 hPa | 0 mm | - | 117 W/m² | - |
| 1777675822 | 20° C | 57% | 1017.3 hPa | 0 mm | - | 139 W/m² | - |
| 1777675520 | 19.44° C | 61% | 1017.5 hPa | 0 mm | - | 144 W/m² | - |
| 1777675217 | 19.44° C | 64% | 1017.5 hPa | 0 mm | - | 134 W/m² | - |
| 1777674914 | 19.44° C | 56% | 1017.4 hPa | 0 mm | - | 104 W/m² | - |
| 1777674610 | 19.44° C | 55% | 1017.3 hPa | 0 mm | - | 108 W/m² | - |
| 1777674307 | 19.44° C | 63% | 1017.2 hPa | 0 mm | - | 137 W/m² | - |
* Rain latest hour (hover to see other rain measurements)
** Current wind speed in m/s (hover to see current wind gust speed)